K4SGK Weather Reports


time (UTC)temp
C
wind
direction
speed
KPH
gust
KPH
rain 1hr
cm
rain 24hr
cm
rain mn
cm
humidity
%
barometer
mb
20260509022004 15 217 1.6 3.2 0.00 0.00 0.00 48 1008.4
20260509015004 15 226 0.0 1.6 0.00 0.00 0.00 53 1008.4
20260509014004 16 227 0.0 1.6 0.00 0.00 0.00 50 1008.3
20260509013004 16 227 1.6 3.2 0.00 0.00 0.00 45 1008.3
20260509012004 17 227 1.6 3.2 0.00 0.00 0.00 40 1008.4
20260509011004 17 233 1.6 3.2 0.00 0.00 0.00 41 1008.4
20260509005005 17 260 1.6 3.2 0.00 0.00 0.00 44 1008.5
20260509004004 17 260 1.6 3.2 0.00 0.00 0.00 40 1008.5
20260509003004 17 260 1.6 3.2 0.00 0.00 0.00 46 1008.6
20260509002004 18 260 1.6 1.6 0.00 0.00 0.00 37 1008.6
20260509001004 18 261 1.6 3.2 0.00 0.00 0.00 38 1008.8
20260509000004 19 232 3.2 4.8 0.00 0.00 0.00 36 1008.8
20260508235004 20 252 3.2 4.8 0.00 0.00 0.00 32 1008.8
20260508234004 20 270 4.8 8.0 0.00 0.00 0.00 31 1008.8
20260508233004 20 242 4.8 9.7 0.00 0.00 0.00 33 1008.8
20260508232004 20 261 4.8 8.0 0.00 0.00 0.00 31 1008.9
20260508231003 20 275 4.8 9.7 0.00 0.00 0.00 31 1008.9
20260508230004 20 272 3.2 9.7 0.00 0.00 0.00 32 1008.9
20260508225004 21 244 4.8 9.7 0.00 0.00 0.00 32 1008.9
20260508224004 21 272 8.0 11.3 0.00 0.00 0.00 31 1009.2
20260508223004 21 206 3.2 9.7 0.00 0.00 0.00 34 1009.1
20260508221004 21 260 6.4 14.5 0.00 0.00 0.00 28 1009.0
20260508220004 21 308 4.8 16.1 0.00 0.00 0.00 28 1009.0
20260508215004 21 246 3.2 9.7 0.00 0.00 0.00 28 1009.0
20260508214004 21 266 3.2 12.9 0.00 0.00 0.00 27 1009.0
20260508212004 21 210 4.8 14.5 0.00 0.00 0.00 27 1009.2
20260508211003 21 258 9.7 12.9 0.00 0.00 0.00 27 1009.4
20260508205004 21 224 3.2 11.3 0.00 0.00 0.00 27 1009.6
20260508204003 21 261 4.8 12.9 0.00 0.00 0.00 27 1009.6
20260508203004 21 248 3.2 9.7 0.00 0.00 0.00 24 1009.7
20260508202003 21 241 3.2 9.7 0.00 0.00 0.00 28 1009.8
20260508201004 21 246 8.0 14.5 0.00 0.00 0.00 27 1009.9
20260508200004 21 272 3.2 11.3 0.00 0.00 0.00 30 1010.0
20260508194003 21 187 3.2 12.9 0.00 0.00 0.00 24 1010.2
20260508193004 21 255 6.4 11.3 0.00 0.00 0.00 26 1010.5
20260508192004 21 241 9.7 16.1 0.00 0.00 0.00 25 1010.8
20260508191003 20 239 6.4 16.1 0.00 0.00 0.00 26 1011.0
20260508190004 20 201 6.4 14.5 0.00 0.00 0.00 28 1011.2
20260508185003 20 185 6.4 16.1 0.00 0.00 0.00 28 1011.3
20260508182004 20 251 9.7 12.9 0.00 0.00 0.00 27 1011.7
20260508181004 20 217 3.2 9.7 0.00 0.00 0.00 33 1011.8
20260508180004 20 257 4.8 16.1 0.00 0.00 0.00 32 1012.1
20260508175003 20 209 4.8 9.7 0.00 0.00 0.00 31 1012.3
20260508174004 19 253 6.4 14.5 0.00 0.00 0.00 30 1012.5
20260508173003 20 238 3.2 8.0 0.00 0.00 0.00 31 1012.7
20260508172004 19 192 3.2 8.0 0.00 0.00 0.00 30 1012.8
20260508171004 19 248 3.2 9.7 0.00 0.00 0.00 33 1013.2
20260508170004 18 136 3.2 8.0 0.00 0.00 0.00 35 1013.3
20260508165004 18 149 4.8 9.7 0.00 0.00 0.00 35 1013.4
20260508164004 18 106 3.2 8.0 0.00 0.00 0.00 34 1013.7
20260508163003 17 144 3.2 11.3 0.00 0.00 0.00 38 1013.8
20260508162004 17 155 3.2 9.7 0.00 0.00 0.00 39 1013.9
20260508161003 17 157 3.2 8.0 0.00 0.00 0.00 37 1014.0
20260508160004 16 274 3.2 11.3 0.00 0.00 0.00 40 1014.3
20260508155004 16 259 6.4 11.3 0.00 0.00 0.00 40 1014.5
20260508154004 16 201 4.8 8.0 0.00 0.00 0.00 44 1014.5
20260508153003 15 168 4.8 9.7 0.00 0.00 0.00 47 1014.5
20260508152004 15 184 4.8 12.9 0.00 0.00 0.00 47 1014.9
20260508151005 15 253 3.2 9.7 0.00 0.00 0.00 49 1015.0
20260508150005 15 207 3.2 11.3 0.00 0.00 0.00 50 1015.0
20260508144005 14 237 4.8 12.9 0.00 0.00 0.00 53 1015.0
20260508143004 13 225 6.4 12.9 0.00 0.00 0.00 52 1015.0
20260508141005 13 150 3.2 8.0 0.00 0.00 0.00 59 1015.1
20260508135005 12 253 3.2 4.8 0.00 0.00 0.00 66 1015.3
20260508133005 11 198 1.6 3.2 0.00 0.00 0.00 70 1015.0
20260508132005 10 254 0.0 3.2 0.00 0.00 0.00 77 1014.9
20260508131005 10 242 1.6 4.8 0.00 0.00 0.00 81 1014.9
20260508125004 8 252 3.2 4.8 0.00 0.00 0.00 91 1014.9
20260508124004 7 253 3.2 4.8 0.00 0.00 0.00 96 1014.9
20260508122004 6 246 1.6 4.8 0.00 0.00 0.00 100 1014.9
20260508121005 5 258 3.2 4.8 0.00 0.00 0.00 100 1014.8
20260508120005 4 223 1.6 1.6 0.00 0.00 0.00 99 1014.7
20260508115005 3 0 0.0 1.6 0.00 0.00 0.00 99 1014.5
20260508114004 3 0 0.0 1.6 0.00 0.00 0.00 98 1014.5
20260508113005 2 0 0.0 0.0 0.00 0.00 0.00 97 1014.5
20260508112005 2 0 0.0 0.0 0.00 0.00 0.00 97 1014.5
20260508111004 2 0 0.0 0.0 0.00 0.00 0.00 97 1014.2
20260508110005 2 0 1.6 1.6 0.00 0.00 0.00 96 1014.1
20260508105004 2 0 0.0 1.6 0.00 0.00 0.00 96 1014.0
20260508104005 2 0 0.0 0.0 0.00 0.00 0.00 96 1013.9
20260508103004 2 0 0.0 1.6 0.00 0.00 0.00 96 1013.8
20260508102005 2 0 0.0 0.0 0.00 0.00 0.00 96 1013.7
20260508101005 2 0 0.0 1.6 0.00 0.00 0.00 96 1013.5
20260508100004 2 0 1.6 1.6 0.00 0.00 0.00 96 1013.4
20260508095005 2 0 0.0 0.0 0.00 0.00 0.00 96 1013.4
20260508094005 2 0 0.0 1.6 0.00 0.00 0.00 96 1013.4
20260508093005 2 0 0.0 1.6 0.00 0.00 0.00 96 1013.6
20260508092004 3 0 0.0 3.2 0.00 0.00 0.00 95 1013.6
20260508091004 3 0 0.0 1.6 0.00 0.00 0.00 96 1013.7
20260508090005 3 0 0.0 1.6 0.00 0.00 0.00 95 1013.7
20260508085004 3 0 0.0 1.6 0.00 0.00 0.00 96 1013.8
20260508083005 3 0 0.0 1.6 0.00 0.00 0.00 95 1013.9
20260508082004 3 0 0.0 1.6 0.00 0.00 0.00 95 1013.7
20260508081005 3 0 0.0 1.6 0.00 0.00 0.00 95 1013.7
20260508075004 4 0 0.0 1.6 0.00 0.00 0.00 95 1013.8
20260508074004 4 0 0.0 0.0 0.00 0.00 0.00 95 1013.7
20260508073004 4 0 0.0 1.6 0.00 0.00 0.00 95 1013.5
20260508072005 4 0 0.0 0.0 0.00 0.00 0.00 94 1013.6
20260508071005 4 0 0.0 1.6 0.00 0.00 0.00 94 1013.8
20260508070005 4 0 0.0 1.6 0.00 0.00 0.00 94 1013.8
20260508065004 5 0 1.6 1.6 0.00 0.00 0.00 94 1013.8
20260508064005 5 0 0.0 1.6 0.00 0.00 0.00 94 1013.7
20260508063004 5 0 1.6 3.2 0.00 0.00 0.00 93 1013.7
20260508062004 5 0 0.0 1.6 0.00 0.00 0.00 93 1013.8
20260508061004 5 0 0.0 0.0 0.00 0.00 0.00 93 1013.8
20260508055004 5 0 0.0 0.0 0.00 0.00 0.00 92 1013.8
20260508053004 5 0 0.0 0.0 0.00 0.00 0.00 92 1013.9
20260508052004 6 0 0.0 1.6 0.00 0.00 0.00 92 1013.9
20260508045005 6 0 0.0 1.6 0.00 0.00 0.00 91 1014.1
20260508044004 6 0 0.0 0.0 0.00 0.00 0.00 91 1014.0
20260508042004 6 0 1.6 3.2 0.00 0.00 0.00 90 1014.0
20260508041004 6 0 0.0 1.6 0.00 0.00 0.00 90 1013.8
20260508040005 6 0 0.0 1.6 0.00 0.00 0.00 89 1013.7
20260508035004 7 0 1.6 1.6 0.00 0.00 0.00 88 1013.6
20260508034004 7 0 0.0 1.6 0.00 0.00 0.00 88 1013.6
20260508033005 7 0 0.0 1.6 0.00 0.00 0.00 87 1013.5
20260508031004 7 0 0.0 1.6 0.00 0.00 0.00 85 1013.6
20260508030005 7 0 0.0 0.0 0.00 0.00 0.00 84 1013.5
20260508024004 8 0 0.0 0.0 0.00 0.00 0.00 82 1013.6
20260508023004 8 0 0.0 1.6 0.00 0.00 0.00 80 1013.5